• In Netherlands
  • List of Countries
  • For 7 days
  • Water Temperature
  • Satellite Maps
  • Weather Map
  • Weather Widgets
  • user-avatar
    Login

    Hourly Weather Brisbane

    Today, 21 January, Saturday

    Time Temperature Precipitation Wind Pressure Humidity
    00:00 +29°C° 0 mm 4 mps 751 mmHg 70%
    01:00 +28°C° 0 mm 4 mps 751 mmHg 68%
    02:00 +28°C° 0.7 mm 4 mps 751 mmHg 70%
    03:00 +28°C° 0.7 mm 4 mps 751 mmHg 71%
    04:00 +27°C° 0.7 mm 4 mps 751 mmHg 73%
    05:00 +28°C° 0.9 mm 4 mps 752 mmHg 73%
    06:00 +29°C° 0.9 mm 4 mps 752 mmHg 72%
    07:00 +29°C° 0.9 mm 4 mps 753 mmHg 71%
    08:00 +32°C° 1.6 mm 4 mps 753 mmHg 69%
    09:00 +33°C° 1.6 mm 4 mps 753 mmHg 66%
    10:00 +35°C° 1.6 mm 4 mps 753 mmHg 63%
    11:00 +34°C° 2.1 mm 5 mps 753 mmHg 66%
    12:00 +33°C° 2.1 mm 6 mps 753 mmHg 69%
    13:00 +32°C° 2.1 mm 8 mps 753 mmHg 73%
    14:00 +30°C° 0.2 mm 7 mps 754 mmHg 74%
    15:00 +29°C° 0.2 mm 7 mps 754 mmHg 75%
    16:00 +28°C° 0.2 mm 7 mps 755 mmHg 76%
    17:00 +27°C° 0 mm 7 mps 755 mmHg 76%
    18:00 +27°C° 0 mm 6 mps 756 mmHg 76%
    19:00 +27°C° 0 mm 6 mps 756 mmHg 77%
    20:00 +26°C° 0 mm 6 mps 757 mmHg 77%
    21:00 +26°C° 0 mm 6 mps 758 mmHg 77%
    22:00 +24°C° 0 mm 6 mps 758 mmHg 78%
    23:00 +25°C° 0 mm 5 mps 758 mmHg 78%

    Tomorrow, 22 January, Sunday

    Time Temperature Precipitation Wind Pressure Humidity
    00:00 +25°C° 0 mm 5 mps 758 mmHg 78%
    01:00 +25°C° 0 mm 5 mps 758 mmHg 77%
    02:00 +25°C° 0 mm 5 mps 758 mmHg 79%
    03:00 +23°C° 0 mm 5 mps 758 mmHg 80%
    04:00 +23°C° 0 mm 5 mps 758 mmHg 81%
    05:00 +23°C° 0 mm 5 mps 758 mmHg 79%
    06:00 +25°C° 0 mm 5 mps 759 mmHg 77%
    07:00 +26°C° 0 mm 5 mps 759 mmHg 74%
    08:00 +26°C° 0 mm 6 mps 760 mmHg 70%
    09:00 +27°C° 0 mm 6 mps 760 mmHg 66%
    10:00 +28°C° 0 mm 6 mps 760 mmHg 62%
    11:00 +28°C° 0 mm 6 mps 760 mmHg 61%
    12:00 +28°C° 0 mm 6 mps 759 mmHg 60%
    13:00 +29°C° 0 mm 6 mps 759 mmHg 59%
    14:00 +28°C° 0 mm 6 mps 759 mmHg 59%
    15:00 +28°C° 0 mm 6 mps 758 mmHg 60%
    16:00 +28°C° 0 mm 6 mps 758 mmHg 60%
    17:00 +27°C° 0 mm 6 mps 759 mmHg 63%
    18:00 +26°C° 0 mm 5 mps 759 mmHg 66%
    19:00 +25°C° 0 mm 4 mps 760 mmHg 69%
    20:00 +23°C° 0 mm 4 mps 760 mmHg 72%
    21:00 +23°C° 0 mm 4 mps 761 mmHg 76%
    22:00 +22°C° 0 mm 4 mps 761 mmHg 80%
    23:00 +21°C° 0 mm 4 mps 760 mmHg 81%

    Day after tomorrow, 23 January, Monday

    Time Temperature Precipitation Wind Pressure Humidity
    00:00 +21°C° 0 mm 3 mps 760 mmHg 82%
    01:00 +21°C° 0 mm 3 mps 760 mmHg 83%
    02:00 +20°C° 0 mm 3 mps 759 mmHg 83%
    03:00 +20°C° 0 mm 3 mps 759 mmHg 83%
    04:00 +20°C° 0 mm 3 mps 759 mmHg 83%
    05:00 +21°C° 0 mm 3 mps 760 mmHg 79%
    06:00 +22°C° 0 mm 4 mps 760 mmHg 76%
    07:00 +23°C° 0 mm 4 mps 760 mmHg 72%
    08:00 +25°C° 0 mm 4 mps 761 mmHg 67%
    09:00 +27°C° 0 mm 4 mps 761 mmHg 62%
    10:00 +28°C° 0 mm 4 mps 761 mmHg 57%
    11:00 +29°C° 0 mm 4 mps 760 mmHg 55%
    12:00 +29°C° 0 mm 4 mps 760 mmHg 54%
    13:00 +30°C° 0 mm 4 mps 760 mmHg 52%
    14:00 +30°C° 0 mm 4 mps 759 mmHg 53%
    15:00 +30°C° 0 mm 4 mps 759 mmHg 53%
    16:00 +30°C° 0 mm 5 mps 758 mmHg 54%
    17:00 +28°C° 0 mm 4 mps 759 mmHg 61%
    18:00 +26°C° 0 mm 4 mps 759 mmHg 68%
    19:00 +24°C° 0 mm 3 mps 760 mmHg 75%
    20:00 +22°C° 0 mm 3 mps 760 mmHg 79%
    21:00 +21°C° 0 mm 3 mps 760 mmHg 83%
    22:00 +21°C° 0 mm 2 mps 761 mmHg 87%
    23:00 +20°C° 0 mm 2 mps 760 mmHg 88%

    24 January, Tuesday

    Time Temperature Precipitation Wind Pressure Humidity
    00:00 +19°C° 0 mm 2 mps 760 mmHg 90%
    01:00 +20°C° 0 mm 1 mps 760 mmHg 91%
    02:00 +20°C° 0 mm 1 mps 760 mmHg 91%
    03:00 +19°C° 0 mm 1 mps 760 mmHg 91%
    04:00 +19°C° 0 mm 1 mps 760 mmHg 92%
    05:00 +21°C° 0 mm 1 mps 760 mmHg 86%
    06:00 +23°C° 0 mm 1 mps 760 mmHg 80%
    07:00 +25°C° 0 mm 1 mps 761 mmHg 75%
    08:00 +27°C° 0 mm 1 mps 761 mmHg 67%
    09:00 +28°C° 0 mm 2 mps 761 mmHg 60%
    10:00 +30°C° 0 mm 2 mps 760 mmHg 52%
    11:00 +31°C° 0 mm 3 mps 760 mmHg 49%
    12:00 +33°C° 0 mm 3 mps 759 mmHg 46%
    13:00 +34°C° 0 mm 4 mps 759 mmHg 43%
    14:00 +33°C° 0 mm 4 mps 758 mmHg 45%
    15:00 +33°C° 0 mm 4 mps 758 mmHg 47%
    16:00 +33°C° 0 mm 5 mps 758 mmHg 50%
    17:00 +29°C° 0 mm 4 mps 758 mmHg 57%
    18:00 +27°C° 0 mm 4 mps 759 mmHg 65%
    19:00 +25°C° 0 mm 4 mps 759 mmHg 72%
    20:00 +25°C° 0 mm 3 mps 759 mmHg 77%
    21:00 +24°C° 0 mm 3 mps 760 mmHg 81%
    22:00 +23°C° 0 mm 2 mps 760 mmHg 85%
    23:00 +21°C° 0 mm 2 mps 760 mmHg 87%

    25 January, Wednesday

    Time Temperature Precipitation Wind Pressure Humidity
    00:00 +21°C° 0 mm 2 mps 760 mmHg 89%
    01:00 +20°C° 0 mm 2 mps 759 mmHg 91%
    02:00 +21°C° 0 mm 1 mps 759 mmHg 92%
    03:00 +21°C° 0 mm 1 mps 759 mmHg 92%
    04:00 +20°C° 0 mm 1 mps 760 mmHg 92%
    05:00 +22°C° 0 mm 1 mps 760 mmHg 86%
    06:00 +24°C° 0 mm 1 mps 761 mmHg 80%
    07:00 +25°C° 0 mm 1 mps 762 mmHg 74%
    08:00 +27°C° 0 mm 1 mps 762 mmHg 68%
    09:00 +29°C° 0 mm 2 mps 762 mmHg 61%
    10:00 +30°C° 0 mm 3 mps 762 mmHg 54%
    11:00 +32°C° 0 mm 4 mps 761 mmHg 51%
    12:00 +33°C° 0 mm 4 mps 761 mmHg 47%
    13:00 +34°C° 0 mm 5 mps 760 mmHg 44%
    14:00 +33°C° 0 mm 5 mps 760 mmHg 46%
    15:00 +32°C° 0 mm 5 mps 760 mmHg 48%
    16:00 +32°C° 0 mm 5 mps 760 mmHg 50%
    17:00 +29°C° 0 mm 5 mps 760 mmHg 58%
    18:00 +27°C° 0 mm 4 mps 761 mmHg 67%
    19:00 +25°C° 0 mm 4 mps 761 mmHg 75%
    20:00 +24°C° 0 mm 3 mps 761 mmHg 80%
    21:00 +22°C° 0 mm 3 mps 761 mmHg 84%
    22:00 +21°C° 0 mm 3 mps 762 mmHg 88%
    23:00 +21°C° 0 mm 3 mps 761 mmHg 89%

    26 January, Thursday

    Time Temperature Precipitation Wind Pressure Humidity
    00:00 +21°C° 0 mm 2 mps 761 mmHg 89%
    01:00 +21°C° 0 mm 2 mps 760 mmHg 90%
    02:00 +21°C° 0 mm 2 mps 760 mmHg 90%
    03:00 +20°C° 0 mm 2 mps 760 mmHg 90%
    04:00 +20°C° 0 mm 2 mps 760 mmHg 90%
    05:00 +23°C° 0 mm 2 mps 760 mmHg 84%
    06:00 +24°C° 0 mm 2 mps 761 mmHg 79%
    07:00 +25°C° 0 mm 2 mps 761 mmHg 73%
    08:00 +27°C° 0 mm 2 mps 761 mmHg 67%
    09:00 +28°C° 0 mm 2 mps 761 mmHg 61%
    10:00 +30°C° 0 mm 3 mps 761 mmHg 55%
    11:00 +31°C° 0 mm 3 mps 760 mmHg 52%
    12:00 +33°C° 0 mm 3 mps 759 mmHg 48%
    13:00 +34°C° 0 mm 3 mps 759 mmHg 45%
    14:00 +33°C° 0 mm 4 mps 759 mmHg 47%
    15:00 +33°C° 0 mm 4 mps 758 mmHg 50%
    16:00 +32°C° 0 mm 5 mps 758 mmHg 52%
    17:00 +29°C° 0 mm 4 mps 759 mmHg 59%
    18:00 +28°C° 0 mm 4 mps 759 mmHg 67%
    19:00 +26°C° 0 mm 3 mps 759 mmHg 75%
    20:00 +25°C° 0 mm 3 mps 760 mmHg 79%
    21:00 +24°C° 0 mm 3 mps 760 mmHg 82%
    22:00 +24°C° 0 mm 3 mps 761 mmHg 86%
    23:00 +22°C° 0 mm 3 mps 760 mmHg 87%
    Show more